Total_Precipitation_Accumulation
0.03 0.06 0.17 0.20 0.18 0.18 0.20 0.21 0.20 0.18 0.16 0.17 0.18 0.19 0.20 0.21 0.20 0.20 0.20 0.21 0.22 0.23 0.25 0.25 0.23 0.22 0.21 0.21 0.21 0.20 0.19 0.19 0.20 0.21 0.24 0.28 0.30 0.27 0.23 0.21 0.16 0.23 0.32
0.06 0.09 0.16 0.17 0.17 0.18 0.18 0.17 0.16 0.13 0.13 0.15 0.13 0.13 0.14 0.15 0.17 0.18 0.18 0.19 0.21 0.22 0.22 0.23 0.22 0.20 0.17 0.18 0.20 0.20 0.17 0.15 0.13 0.14 0.15 0.15 0.25 0.28 0.23 0.24 0.24 0.36 0.40
0.04 0.08 0.13 0.15 0.16 0.17 0.17 0.15 0.13 0.10 0.10 0.11 0.10 0.10 0.11 0.12 0.12 0.13 0.14 0.16 0.17 0.17 0.18 0.19 0.20 0.19 0.14 0.14 0.18 0.19 0.17 0.15 0.12 0.10 0.09 0.10 0.19 0.28 0.28 0.27 0.28 0.41 0.41
0.02 0.05 0.09 0.15 0.17 0.18 0.16 0.14 0.12 0.10 0.09 0.09 0.09 0.09 0.09 0.09 0.10 0.11 0.12 0.12 0.13 0.15 0.16 0.16 0.17 0.18 0.14 0.14 0.15 0.16 0.15 0.14 0.10 0.07 0.03 0.05 0.23 0.37 0.37 0.32 0.29 0.38 0.40
0.01 0.03 0.08 0.15 0.17 0.18 0.18 0.15 0.12 0.10 0.10 0.10 0.09 0.08 0.08 0.09 0.09 0.09 0.08 0.07 0.08 0.09 0.11 0.12 0.16 0.17 0.16 0.15 0.14 0.15 0.16 0.15 0.10 0.04 0.01 0.07 0.25 0.41 0.37 0.33 0.30 0.35 0.38
0.02 0.03 0.08 0.14 0.18 0.19 0.19 0.16 0.12 0.11 0.10 0.09 0.08 0.08 0.08 0.09 0.09 0.08 0.07 0.06 0.05 0.06 0.08 0.11 0.16 0.20 0.16 0.14 0.17 0.20 0.25 0.22 0.11 0.03 0.02 0.07 0.17 0.33 0.38 0.41 0.40 0.37 0.36
0.03 0.05 0.08 0.13 0.18 0.19 0.19 0.16 0.12 0.11 0.11 0.09 0.08 0.08 0.08 0.09 0.08 0.07 0.07 0.07 0.05 0.05 0.06 0.08 0.12 0.21 0.20 0.19 0.23 0.26 0.32 0.25 0.12 0.11 0.06 0.04 0.13 0.30 0.47 0.52 0.49 0.41 0.38
0.01 0.02 0.05 0.12 0.15 0.16 0.18 0.16 0.12 0.11 0.11 0.09 0.08 0.08 0.08 0.08 0.08 0.09 0.11 0.10 0.08 0.06 0.07 0.07 0.08 0.13 0.18 0.21 0.24 0.28 0.29 0.17 0.12 0.22 0.18 0.14 0.22 0.41 0.52 0.68 0.64 0.50 0.43
0.00 0.01 0.04 0.09 0.12 0.14 0.17 0.16 0.13 0.11 0.10 0.09 0.08 0.07 0.07 0.07 0.07 0.10 0.09 0.08 0.07 0.07 0.08 0.06 0.05 0.07 0.12 0.16 0.19 0.22 0.21 0.13 0.12 0.31 0.31 0.39 0.33 0.43 0.48 0.64 0.71 0.60 0.49
0.01 0.02 0.04 0.07 0.08 0.10 0.13 0.15 0.14 0.12 0.10 0.10 0.09 0.07 0.07 0.07 0.09 0.10 0.07 0.07 0.07 0.08 0.07 0.07 0.06 0.05 0.04 0.06 0.08 0.09 0.09 0.05 0.06 0.22 0.48 0.47 0.37 0.54 0.61 0.64 0.68 0.65 0.60
0.02 0.03 0.04 0.05 0.07 0.07 0.09 0.11 0.14 0.13 0.11 0.11 0.11 0.10 0.07 0.07 0.07 0.06 0.04 0.06 0.06 0.06 0.06 0.06 0.07 0.07 0.05 0.02 0.02 0.03 0.03 0.00 0.04 0.16 0.29 0.32 0.40 0.55 0.73 0.76 0.75 0.70 0.64
0.02 0.03 0.03 0.04 0.05 0.07 0.07 0.09 0.11 0.11 0.10 0.08 0.07 0.06 0.06 0.07 0.07 0.07 0.07 0.09 0.07 0.06 0.07 0.09 0.08 0.07 0.05 0.03 0.06 0.08 0.03 0.01 0.01 0.03 0.08 0.14 0.27 0.44 0.61 0.75 0.87 0.84 0.73
0.01 0.02 0.03 0.04 0.04 0.06 0.07 0.07 0.08 0.09 0.09 0.06 0.04 0.03 0.03 0.04 0.04 0.05 0.05 0.07 0.07 0.08 0.11 0.11 0.11 0.11 0.11 0.12 0.14 0.14 0.10 0.06 0.04 0.03 0.03 0.07 0.14 0.24 0.42 0.61 0.82 0.94 0.92
0.02 0.02 0.03 0.04 0.04 0.05 0.05 0.06 0.06 0.07 0.07 0.06 0.04 0.03 0.02 0.02 0.02 0.02 0.03 0.03 0.05 0.07 0.10 0.14 0.15 0.16 0.14 0.13 0.13 0.13 0.13 0.13 0.08 0.07 0.05 0.08 0.11 0.11 0.19 0.36 0.59 0.88 1.02
0.03 0.03 0.03 0.04 0.05 0.05 0.05 0.06 0.05 0.05 0.06 0.05 0.04 0.03 0.02 0.02 0.02 0.01 0.01 0.01 0.02 0.02 0.02 0.04 0.05 0.08 0.09 0.09 0.11 0.11 0.12 0.11 0.09 0.10 0.09 0.10 0.11 0.10 0.11 0.19 0.35 0.68 0.99
0.05 0.04 0.04 0.04 0.05 0.06 0.05 0.05 0.05 0.05 0.05 0.05 0.04 0.03 0.02 0.02 0.02 0.02 0.02 0.01 0.01 0.01 0.01 0.01 0.01 0.02 0.03 0.03 0.04 0.05 0.07 0.08 0.08 0.11 0.12 0.14 0.13 0.11 0.10 0.12 0.20 0.39 0.73
0.05 0.05 0.05 0.05 0.06 0.06 0.05 0.04 0.05 0.05 0.05 0.05 0.04 0.03 0.03 0.02 0.02 0.02 0.02 0.02 0.02 0.01 0.01 0.01 0.01 0.01 0.01 0.01 0.01 0.01 0.02 0.03 0.05 0.08 0.10 0.13 0.17 0.15 0.13 0.12 0.13 0.22 0.41
0.07 0.07 0.07 0.07 0.06 0.05 0.05 0.05 0.05 0.05 0.05 0.05 0.04 0.03 0.03 0.02 0.02 0.02 0.03 0.03 0.02 0.02 0.02 0.02 0.02 0.01 0.02 0.01 0.01 0.01 0.01 0.01 0.01 0.03 0.05 0.08 0.14 0.17 0.15 0.15 0.14 0.15 0.24
0.10 0.09 0.09 0.09 0.07 0.05 0.05 0.05 0.05 0.05 0.05 0.04 0.03 0.03 0.03 0.02 0.02 0.02 0.03 0.03 0.03 0.02 0.02 0.02 0.01 0.01 0.02 0.01 0.01 0.01 0.01 0.00 0.00 0.00 0.01 0.03 0.06 0.13 0.17 0.17 0.18 0.17 0.17
0.13 0.12 0.11 0.10 0.10 0.08 0.07 0.07 0.07 0.06 0.05 0.05 0.04 0.03 0.02 0.02 0.02 0.02 0.03 0.03 0.03 0.03 0.02 0.02 0.02 0.02 0.02 0.02 0.01 0.01 0.00 0.00 0.00 0.00 0.00 0.01 0.02 0.05 0.11 0.15 0.18 0.18 0.16
0.14 0.14 0.13 0.12 0.11 0.12 0.10 0.08 0.07 0.06 0.05 0.05 0.04 0.02 0.02 0.01 0.01 0.02 0.02 0.02 0.02 0.03 0.03 0.02 0.02 0.02 0.02 0.02 0.03 0.02 0.01 0.00 0.00 0.00 0.00 0.00 0.01 0.01 0.04 0.08 0.15 0.20 0.19
0.11 0.13 0.13 0.13 0.11 0.11 0.08 0.05 0.04 0.04 0.04 0.04 0.04 0.03 0.02 0.02 0.02 0.02 0.02 0.03 0.03 0.03 0.03 0.03 0.03 0.03 0.03 0.03 0.06 0.11 0.06 0.01 0.00 0.00 0.00 0.00 0.00 0.01 0.02 0.04 0.08 0.15 0.20
0.06 0.09 0.11 0.11 0.11 0.12 0.10 0.07 0.06 0.06 0.06 0.06 0.05 0.04 0.02 0.01 0.01 0.01 0.01 0.02 0.02 0.02 0.02 0.02 0.02 0.04 0.05 0.03 0.05 0.20 0.29 0.17 0.05 0.01 0.00 0.01 0.01 0.01 0.01 0.02 0.05 0.08 0.14
0.04 0.06 0.09 0.11 0.10 0.11 0.14 0.10 0.06 0.05 0.04 0.03 0.03 0.02 0.01 0.01 0.01 0.01 0.01 0.02 0.02 0.02 0.02 0.02 0.02 0.04 0.07 0.09 0.05 0.08 0.19 0.26 0.29 0.14 0.02 0.02 0.03 0.03 0.02 0.02 0.03 0.05 0.08
0.03 0.04 0.07 0.10 0.13 0.11 0.13 0.12 0.07 0.05 0.03 0.02 0.02 0.02 0.02 0.02 0.01 0.02 0.02 0.02 0.02 0.02 0.02 0.02 0.03 0.04 0.08 0.13 0.13 0.12 0.10 0.10 0.16 0.26 0.12 0.03 0.04 0.04 0.04 0.03 0.03 0.04 0.05
0.02 0.04 0.06 0.08 0.11 0.12 0.11 0.12 0.10 0.06 0.05 0.04 0.03 0.02 0.02 0.02 0.02 0.02 0.02 0.02 0.02 0.02 0.03 0.03 0.04 0.05 0.07 0.10 0.12 0.14 0.18 0.20 0.16 0.22 0.21 0.07 0.03 0.03 0.04 0.04 0.05 0.07 0.09